| time (UTC) | temp F | wind direction | speed MPH | gust MPH | rain 1hr in | rain 24hr in | rain mn in | humidity % | barometer mb |
| 20260505140405 | 59 | 254 | 9.0 | 20.0 | 0.00 | 0.00 | 0.00 | 54 | 1013.9 |
| 20260505125034 | 60 | 332 | 7.0 | 15.0 | 0.00 | 0.00 | 0.00 | 59 | 1013.6 |
| 20260505124402 | 60 | 19 | 10.0 | 21.0 | 0.00 | 0.00 | 0.00 | 58 | 1013.5 |
| 20260505124035 | 60 | 355 | 12.0 | 21.0 | 0.00 | 0.00 | 0.00 | 58 | 1013.6 |
| 20260505123034 | 60 | 313 | 10.0 | 21.0 | 0.00 | 0.00 | 0.00 | 58 | 1013.8 |
| 20260505122353 | 59 | 321 | 8.0 | 20.0 | 0.00 | 0.00 | 0.00 | 59 | 1013.9 |
| 20260505121352 | 59 | 332 | 11.0 | 20.0 | 0.00 | 0.00 | 0.00 | 59 | 1013.8 |
| 20260505121027 | 59 | 289 | 12.0 | 22.0 | 0.00 | 0.00 | 0.00 | 58 | 1013.8 |
| 20260505120354 | 59 | 341 | 12.0 | 22.0 | 0.00 | 0.00 | 0.00 | 56 | 1013.7 |
| 20260505120027 | 60 | 302 | 12.0 | 22.0 | 0.00 | 0.00 | 0.00 | 56 | 1013.8 |
| 20260505115355 | 60 | 355 | 13.0 | 24.0 | 0.00 | 0.00 | 0.00 | 56 | 1013.7 |
| 20260505115027 | 60 | 331 | 12.0 | 24.0 | 0.00 | 0.00 | 0.00 | 56 | 1013.6 |
| 20260505114355 | 60 | 295 | 11.0 | 21.0 | 0.00 | 0.00 | 0.00 | 55 | 1013.8 |
| 20260505114022 | 61 | 261 | 11.0 | 23.0 | 0.00 | 0.00 | 0.00 | 54 | 1013.6 |
| 20260505113353 | 61 | 350 | 10.0 | 22.0 | 0.00 | 0.00 | 0.00 | 55 | 1013.6 |
| 20260505113022 | 60 | 308 | 12.0 | 27.0 | 0.00 | 0.00 | 0.00 | 57 | 1013.6 |
| 20260505112353 | 60 | 274 | 12.0 | 27.0 | 0.00 | 0.00 | 0.00 | 56 | 1013.6 |
| 20260505112019 | 60 | 313 | 13.0 | 23.0 | 0.00 | 0.00 | 0.00 | 55 | 1013.6 |
| 20260505111353 | 60 | 237 | 15.0 | 25.0 | 0.00 | 0.00 | 0.00 | 56 | 1013.7 |
| 20260505111017 | 60 | 333 | 15.0 | 27.0 | 0.00 | 0.00 | 0.00 | 56 | 1013.6 |
| 20260505102010 | 59 | 302 | 15.0 | 25.0 | 0.00 | 0.00 | 0.00 | 58 | 1013.3 |
| 20260505100338 | 60 | 304 | 11.0 | 25.0 | 0.00 | 0.00 | 0.00 | 59 | 1013.3 |
| 20260505100004 | 60 | 272 | 12.0 | 24.0 | 0.00 | 0.00 | 0.00 | 59 | 1013.3 |
| 20260505095339 | 60 | 310 | 13.0 | 28.0 | 0.00 | 0.00 | 0.00 | 60 | 1013.3 |
| 20260505095003 | 60 | 279 | 15.0 | 28.0 | 0.00 | 0.00 | 0.00 | 59 | 1013.3 |
| 20260505094339 | 60 | 241 | 16.0 | 28.0 | 0.00 | 0.00 | 0.00 | 57 | 1013.3 |
| 20260505094000 | 60 | 323 | 15.0 | 28.0 | 0.00 | 0.00 | 0.00 | 54 | 1013.3 |
| 20260505093340 | 60 | 234 | 15.0 | 28.0 | 0.00 | 0.00 | 0.00 | 55 | 1013.2 |
| 20260505092958 | 60 | 309 | 15.0 | 28.0 | 0.00 | 0.00 | 0.00 | 53 | 1013.3 |
| 20260505092338 | 60 | 274 | 13.0 | 26.0 | 0.00 | 0.00 | 0.00 | 55 | 1013.4 |
| 20260505091957 | 60 | 249 | 15.0 | 26.0 | 0.00 | 0.00 | 0.00 | 55 | 1013.3 |
| 20260505091337 | 60 | 281 | 15.0 | 26.0 | 0.00 | 0.00 | 0.00 | 54 | 1013.5 |
| 20260505090955 | 59 | 163 | 15.0 | 28.0 | 0.00 | 0.00 | 0.00 | 53 | 1013.4 |
| 20260505090337 | 59 | 296 | 15.0 | 28.0 | 0.00 | 0.00 | 0.00 | 51 | 1013.7 |
| 20260505085951 | 59 | 291 | 14.0 | 27.0 | 0.00 | 0.00 | 0.00 | 53 | 1013.6 |
| 20260505085333 | 58 | 253 | 15.0 | 24.0 | 0.00 | 0.00 | 0.00 | 54 | 1013.7 |
| 20260505083331 | 58 | 279 | 13.0 | 24.0 | 0.00 | 0.00 | 0.00 | 56 | 1013.8 |
| 20260505082948 | 59 | 311 | 11.0 | 24.0 | 0.00 | 0.00 | 0.00 | 59 | 1013.6 |
| 20260505082327 | 59 | 314 | 13.0 | 22.0 | 0.00 | 0.00 | 0.00 | 61 | 1013.6 |
| 20260505081946 | 58 | 321 | 14.0 | 23.0 | 0.00 | 0.00 | 0.00 | 59 | 1013.8 |
| 20260505080943 | 58 | 259 | 10.0 | 24.0 | 0.00 | 0.00 | 0.00 | 60 | 1013.7 |
| 20260505080326 | 58 | 241 | 10.0 | 20.0 | 0.00 | 0.00 | 0.00 | 63 | 1013.6 |
| 20260505075943 | 57 | 294 | 10.0 | 20.0 | 0.00 | 0.00 | 0.00 | 64 | 1013.8 |
| 20260505074941 | 57 | 309 | 15.0 | 27.0 | 0.00 | 0.00 | 0.00 | 64 | 1013.7 |
| 20260505074326 | 58 | 299 | 15.0 | 27.0 | 0.00 | 0.00 | 0.00 | 64 | 1013.6 |
| 20260505073942 | 58 | 286 | 13.0 | 24.0 | 0.00 | 0.00 | 0.00 | 65 | 1013.6 |
| 20260505073327 | 57 | 317 | 12.0 | 22.0 | 0.00 | 0.00 | 0.00 | 64 | 1013.5 |
| 20260505072940 | 57 | 286 | 12.0 | 25.0 | 0.00 | 0.00 | 0.00 | 65 | 1013.4 |
| 20260505072327 | 57 | 246 | 12.0 | 25.0 | 0.00 | 0.00 | 0.00 | 66 | 1013.6 |
| 20260505071324 | 57 | 240 | 13.0 | 26.0 | 0.00 | 0.00 | 0.00 | 66 | 1013.5 |
| 20260505070934 | 56 | 322 | 10.0 | 24.0 | 0.00 | 0.00 | 0.00 | 66 | 1013.5 |
| 20260505065928 | 56 | 284 | 10.0 | 20.0 | 0.00 | 0.00 | 0.00 | 71 | 1013.5 |
| 20260505065327 | 56 | 338 | 11.0 | 22.0 | 0.00 | 0.00 | 0.00 | 72 | 1013.4 |
| 20260505064929 | 56 | 275 | 11.0 | 22.0 | 0.00 | 0.00 | 0.00 | 74 | 1013.3 |
| 20260505063928 | 55 | 263 | 13.0 | 26.0 | 0.00 | 0.00 | 0.00 | 73 | 1013.3 |
| 20260505063322 | 55 | 298 | 15.0 | 28.0 | 0.00 | 0.00 | 0.00 | 73 | 1013.2 |
| 20260505062927 | 55 | 335 | 15.0 | 28.0 | 0.00 | 0.00 | 0.00 | 73 | 1013.0 |
| 20260505062322 | 55 | 274 | 14.0 | 25.0 | 0.00 | 0.00 | 0.00 | 73 | 1012.8 |
| 20260505061922 | 55 | 305 | 14.0 | 28.0 | 0.00 | 0.00 | 0.00 | 72 | 1012.6 |
| 20260505061320 | 55 | 219 | 16.0 | 28.0 | 0.00 | 0.00 | 0.00 | 72 | 1012.8 |
| 20260505060920 | 54 | 252 | 17.0 | 32.0 | 0.00 | 0.00 | 0.00 | 72 | 1012.6 |
| 20260505060323 | 54 | 288 | 17.0 | 32.0 | 0.00 | 0.00 | 0.00 | 72 | 1012.6 |
| 20260505055924 | 55 | 292 | 17.0 | 28.0 | 0.00 | 0.00 | 0.00 | 74 | 1012.8 |
| 20260505054322 | 54 | 257 | 14.0 | 27.0 | 0.00 | 0.00 | 0.00 | 76 | 1012.9 |
| 20260505053914 | 54 | 305 | 14.0 | 27.0 | 0.00 | 0.00 | 0.00 | 76 | 1012.9 |
| 20260505053318 | 53 | 268 | 13.0 | 23.0 | 0.00 | 0.00 | 0.00 | 77 | 1012.9 |
| 20260505052910 | 54 | 300 | 14.0 | 23.0 | 0.00 | 0.00 | 0.00 | 78 | 1013.0 |
| 20260505052317 | 54 | 243 | 14.0 | 22.0 | 0.00 | 0.00 | 0.00 | 78 | 1013.1 |
| 20260505050319 | 53 | 288 | 10.0 | 20.0 | 0.00 | 0.00 | 0.00 | 80 | 1012.9 |
| 20260505041311 | 52 | 0.0 | 0.0 | 0.00 | 0.00 | 0.00 | 82 | 1012.6 | |
| 20260505040858 | 52 | 0.0 | 0.0 | 0.00 | 0.00 | 0.00 | 82 | 1012.5 | |
| 20260505040307 | 51 | 0.0 | 0.0 | 0.00 | 0.00 | 0.00 | 82 | 1012.5 | |
| 20260505035857 | 51 | 0.0 | 0.0 | 0.00 | 0.00 | 0.00 | 83 | 1012.5 | |
| 20260505035259 | 51 | 0.0 | 0.0 | 0.00 | 0.00 | 0.00 | 83 | 1012.5 | |
| 20260505034851 | 51 | 0.0 | 0.0 | 0.00 | 0.00 | 0.00 | 83 | 1012.4 | |
| 20260505034257 | 50 | 0.0 | 0.0 | 0.00 | 0.00 | 0.00 | 83 | 1012.3 | |
| 20260505033851 | 50 | 0.0 | 0.0 | 0.00 | 0.00 | 0.00 | 83 | 1012.2 | |
| 20260505033238 | 50 | 0.0 | 0.0 | 0.00 | 0.00 | 0.00 | 83 | 1012.2 | |
| 20260505032226 | 50 | 0.0 | 0.0 | 0.00 | 0.00 | 0.00 | 84 | 1012.2 | |
| 20260505030836 | 50 | 0.0 | 0.0 | 0.00 | 0.00 | 0.00 | 85 | 1012.1 | |
| 20260505030142 | 50 | 0.0 | 0.0 | 0.00 | 0.00 | 0.00 | 85 | 1012.2 | |
| 20260505025839 | 50 | 0.0 | 0.0 | 0.00 | 0.00 | 0.00 | 85 | 1012.2 | |
| 20260505025125 | 50 | 323 | 5.0 | 3.0 | 0.00 | 0.00 | 0.00 | 85 | 1012.2 |
| 20260505024834 | 50 | 323 | 5.0 | 11.0 | 0.00 | 0.00 | 0.00 | 85 | 1012.2 |
| 20260505024106 | 50 | 323 | 5.0 | 12.0 | 0.00 | 0.00 | 0.00 | 85 | 1012.2 |
| 20260505023833 | 50 | 317 | 5.0 | 14.0 | 0.00 | 0.00 | 0.00 | 86 | 1012.3 |
| 20260505022832 | 50 | 257 | 7.0 | 15.0 | 0.00 | 0.00 | 0.00 | 86 | 1012.3 |
| 20260505022055 | 50 | 266 | 6.0 | 15.0 | 0.00 | 0.00 | 0.00 | 86 | 1012.4 |
| 20260505020055 | 50 | 248 | 5.0 | 12.0 | 0.00 | 0.00 | 0.00 | 87 | 1012.4 |
| 20260505015825 | 50 | 295 | 5.0 | 9.0 | 0.00 | 0.00 | 0.00 | 87 | 1012.4 |
| 20260505015052 | 50 | 295 | 5.0 | 11.0 | 0.00 | 0.00 | 0.00 | 87 | 1012.4 |
| 20260505013819 | 50 | 263 | 4.0 | 12.0 | 0.00 | 0.00 | 0.00 | 86 | 1012.3 |
| 20260505013046 | 50 | 277 | 5.0 | 12.0 | 0.00 | 0.00 | 0.00 | 86 | 1012.4 |
| 20260505012818 | 50 | 280 | 6.0 | 12.0 | 0.00 | 0.00 | 0.00 | 86 | 1012.5 |
| 20260505012048 | 50 | 266 | 7.0 | 12.0 | 0.00 | 0.00 | 0.00 | 86 | 1012.5 |
| 20260505011032 | 50 | 289 | 6.0 | 14.0 | 0.00 | 0.00 | 0.00 | 86 | 1012.5 |
| 20260505010814 | 50 | 333 | 6.0 | 15.0 | 0.00 | 0.00 | 0.00 | 86 | 1012.4 |
| 20260505010016 | 50 | 270 | 6.0 | 15.0 | 0.00 | 0.00 | 0.00 | 86 | 1012.6 |
| 20260505005809 | 50 | 294 | 6.0 | 11.0 | 0.00 | 0.00 | 0.00 | 86 | 1012.5 |
| 20260505005010 | 51 | 304 | 6.0 | 13.0 | 0.00 | 0.00 | 0.00 | 85 | 1012.6 |
| 20260505004005 | 51 | 287 | 8.0 | 15.0 | 0.00 | 0.00 | 0.00 | 85 | 1012.6 |
| 20260505003809 | 51 | 296 | 9.0 | 15.0 | 0.00 | 0.00 | 0.00 | 85 | 1012.6 |
| 20260505002955 | 51 | 275 | 7.0 | 14.0 | 0.00 | 0.00 | 0.00 | 84 | 1012.8 |
| 20260505002804 | 51 | 320 | 7.0 | 14.0 | 0.00 | 0.00 | 0.00 | 84 | 1012.8 |
| 20260505001954 | 51 | 282 | 8.0 | 11.0 | 0.00 | 0.00 | 0.00 | 84 | 1012.8 |
| 20260505001803 | 51 | 262 | 6.0 | 3.0 | 0.00 | 0.00 | 0.00 | 83 | 1012.8 |
| 20260505000948 | 51 | 262 | 6.0 | 12.0 | 0.00 | 0.00 | 0.00 | 83 | 1012.8 |
| 20260505000444 | 51 | 262 | 6.0 | 12.0 | 0.00 | 0.00 | 0.00 | 83 | 1012.6 |
| 20260504235942 | 51 | 269 | 6.0 | 11.0 | 0.00 | 0.00 | 0.00 | 83 | 1012.8 |
| 20260504235444 | 51 | 285 | 7.0 | 12.0 | 0.00 | 0.00 | 0.00 | 83 | 1012.8 |
| 20260504234939 | 51 | 269 | 7.0 | 15.0 | 0.00 | 0.00 | 0.00 | 83 | 1012.9 |
| 20260504234441 | 51 | 309 | 6.0 | 15.0 | 0.00 | 0.00 | 0.00 | 83 | 1013.0 |
| 20260504233939 | 51 | 321 | 6.0 | 12.0 | 0.00 | 0.00 | 0.00 | 82 | 1012.9 |
| 20260504232437 | 52 | 293 | 9.0 | 17.0 | 0.00 | 0.00 | 0.00 | 81 | 1013.1 |
| 20260504231935 | 51 | 332 | 9.0 | 17.0 | 0.00 | 0.00 | 0.00 | 81 | 1013.1 |
| 20260504231434 | 51 | 284 | 7.0 | 15.0 | 0.00 | 0.00 | 0.00 | 80 | 1013.0 |
| 20260504230930 | 51 | 284 | 8.0 | 16.0 | 0.00 | 0.00 | 0.00 | 80 | 1013.0 |
| 20260504225926 | 51 | 289 | 9.0 | 17.0 | 0.00 | 0.00 | 0.00 | 80 | 1013.3 |
| 20260504225426 | 51 | 328 | 9.0 | 14.0 | 0.00 | 0.00 | 0.00 | 80 | 1013.3 |
| 20260504224927 | 51 | 308 | 9.0 | 16.0 | 0.00 | 0.00 | 0.00 | 80 | 1013.3 |
| 20260504223924 | 51 | 304 | 9.0 | 17.0 | 0.00 | 0.00 | 0.00 | 79 | 1013.3 |
| 20260504222917 | 51 | 284 | 10.0 | 17.0 | 0.00 | 0.00 | 0.00 | 79 | 1013.5 |
| 20260504222412 | 51 | 314 | 9.0 | 18.0 | 0.00 | 0.00 | 0.00 | 79 | 1013.7 |
| 20260504221913 | 52 | 250 | 10.0 | 18.0 | 0.00 | 0.00 | 0.00 | 80 | 1013.7 |
| 20260504221413 | 52 | 273 | 9.0 | 17.0 | 0.00 | 0.00 | 0.00 | 80 | 1013.9 |
| 20260504220909 | 52 | 267 | 9.0 | 17.0 | 0.00 | 0.00 | 0.00 | 80 | 1014.0 |
| 20260504220409 | 52 | 232 | 9.0 | 15.0 | 0.00 | 0.00 | 0.00 | 80 | 1013.9 |
| 20260504215906 | 52 | 305 | 8.0 | 15.0 | 0.00 | 0.00 | 0.00 | 80 | 1014.2 |
| 20260504215404 | 52 | 299 | 7.0 | 15.0 | 0.00 | 0.00 | 0.00 | 81 | 1014.2 |
| 20260504214904 | 52 | 298 | 8.0 | 14.0 | 0.00 | 0.00 | 0.00 | 80 | 1014.2 |
| 20260504214406 | 52 | 262 | 8.0 | 16.0 | 0.00 | 0.00 | 0.00 | 81 | 1014.2 |
| 20260504213906 | 52 | 286 | 9.0 | 16.0 | 0.00 | 0.00 | 0.00 | 81 | 1014.3 |
| 20260504212902 | 52 | 272 | 8.0 | 15.0 | 0.00 | 0.00 | 0.00 | 81 | 1014.4 |
| 20260504212401 | 52 | 309 | 9.0 | 16.0 | 0.00 | 0.00 | 0.00 | 81 | 1014.5 |
| 20260504211906 | 52 | 299 | 9.0 | 16.0 | 0.00 | 0.00 | 0.00 | 81 | 1014.5 |
| 20260504211404 | 52 | 294 | 8.0 | 15.0 | 0.00 | 0.00 | 0.00 | 81 | 1014.5 |
| 20260504210856 | 52 | 309 | 8.0 | 14.0 | 0.00 | 0.00 | 0.00 | 82 | 1014.5 |
| 20260504210350 | 52 | 269 | 9.0 | 14.0 | 0.00 | 0.00 | 0.00 | 82 | 1014.6 |
| 20260504205844 | 52 | 265 | 8.0 | 15.0 | 0.00 | 0.00 | 0.00 | 82 | 1014.6 |
| 20260504205342 | 52 | 267 | 7.0 | 17.0 | 0.00 | 0.00 | 0.00 | 82 | 1014.5 |
| 20260504204841 | 52 | 286 | 7.0 | 18.0 | 0.00 | 0.00 | 0.00 | 82 | 1014.5 |
| 20260504204341 | 52 | 331 | 8.0 | 18.0 | 0.00 | 0.00 | 0.00 | 82 | 1014.7 |
| 20260504203842 | 52 | 281 | 8.0 | 19.0 | 0.00 | 0.00 | 0.00 | 82 | 1014.6 |
| 20260504202842 | 52 | 310 | 8.0 | 13.0 | 0.00 | 0.00 | 0.00 | 82 | 1014.6 |
| 20260504202341 | 52 | 248 | 7.0 | 13.0 | 0.00 | 0.00 | 0.00 | 82 | 1014.7 |
| 20260504201834 | 52 | 315 | 8.0 | 14.0 | 0.00 | 0.00 | 0.00 | 82 | 1014.6 |
| 20260504201330 | 52 | 298 | 8.0 | 15.0 | 0.00 | 0.00 | 0.00 | 82 | 1014.7 |
| 20260504200829 | 52 | 329 | 9.0 | 18.0 | 0.00 | 0.00 | 0.00 | 82 | 1014.7 |
| 20260504195828 | 52 | 265 | 8.0 | 15.0 | 0.00 | 0.00 | 0.00 | 82 | 1014.8 |
| 20260504195326 | 52 | 262 | 7.0 | 16.0 | 0.00 | 0.00 | 0.00 | 82 | 1014.8 |
| 20260504194826 | 52 | 257 | 8.0 | 18.0 | 0.00 | 0.00 | 0.00 | 82 | 1014.8 |
| 20260504193327 | 52 | 311 | 7.0 | 15.0 | 0.00 | 0.00 | 0.00 | 82 | 1014.9 |
| 20260504191322 | 52 | 321 | 9.0 | 15.0 | 0.00 | 0.00 | 0.00 | 83 | 1014.9 |
| 20260504190820 | 53 | 294 | 9.0 | 18.0 | 0.00 | 0.00 | 0.00 | 83 | 1014.9 |
| 20260504190320 | 53 | 284 | 9.0 | 18.0 | 0.00 | 0.00 | 0.00 | 83 | 1014.9 |
| 20260504185820 | 53 | 246 | 9.0 | 17.0 | 0.00 | 0.00 | 0.00 | 83 | 1014.8 |
| 20260504185311 | 53 | 263 | 9.0 | 18.0 | 0.00 | 0.00 | 0.00 | 83 | 1014.8 |
| 20260504184811 | 53 | 311 | 9.0 | 18.0 | 0.00 | 0.00 | 0.00 | 83 | 1014.8 |
| 20260504184309 | 53 | 291 | 9.0 | 16.0 | 0.00 | 0.00 | 0.00 | 83 | 1014.8 |
| 20260504183311 | 53 | 280 | 8.0 | 18.0 | 0.00 | 0.00 | 0.00 | 84 | 1014.7 |
| 20260504182811 | 53 | 269 | 8.0 | 15.0 | 0.00 | 0.00 | 0.00 | 84 | 1014.7 |
| 20260504182311 | 53 | 269 | 7.0 | 15.0 | 0.00 | 0.00 | 0.00 | 84 | 1014.6 |
| 20260504181811 | 53 | 300 | 7.0 | 15.0 | 0.00 | 0.00 | 0.00 | 84 | 1014.5 |
| 20260504181310 | 53 | 257 | 7.0 | 15.0 | 0.00 | 0.00 | 0.00 | 84 | 1014.7 |
| 20260504175808 | 53 | 273 | 8.0 | 17.0 | 0.00 | 0.00 | 0.00 | 84 | 1014.5 |
| 20260504175304 | 53 | 233 | 8.0 | 18.0 | 0.00 | 0.00 | 0.00 | 84 | 1014.4 |
| 20260504174804 | 53 | 292 | 9.0 | 19.0 | 0.00 | 0.00 | 0.00 | 84 | 1014.3 |
| 20260504173802 | 54 | 324 | 8.0 | 14.0 | 0.00 | 0.00 | 0.00 | 83 | 1014.2 |
| 20260504173303 | 54 | 315 | 9.0 | 18.0 | 0.00 | 0.00 | 0.00 | 83 | 1014.0 |
| 20260504172803 | 54 | 275 | 9.0 | 18.0 | 0.00 | 0.00 | 0.00 | 83 | 1014.3 |
| 20260504172304 | 54 | 296 | 9.0 | 15.0 | 0.00 | 0.00 | 0.00 | 83 | 1013.8 |
| 20260504171802 | 54 | 284 | 9.0 | 15.0 | 0.00 | 0.00 | 0.00 | 82 | 1013.8 |
| 20260504171301 | 54 | 292 | 9.0 | 15.0 | 0.00 | 0.00 | 0.00 | 82 | 1013.8 |
| 20260504170302 | 55 | 311 | 11.0 | 22.0 | 0.00 | 0.00 | 0.00 | 81 | 1013.6 |
| 20260504160250 | 55 | 250 | 10.0 | 19.0 | 0.00 | 0.00 | 0.00 | 72 | 1013.4 |
| 20260504150740 | 56 | 278 | 13.0 | 22.0 | 0.00 | 0.00 | 0.00 | 76 | 1013.4 |
| 20260504150241 | 56 | 311 | 11.0 | 21.0 | 0.00 | 0.00 | 0.00 | 76 | 1013.5 |